This is the latest recevied weather packets stored in our database for station/object CX2SA-13. If no packets are shown the sender has not sent any weather packets the latest 10 day(s).
| Time | Temp. | Humidity | Pressure | Rain* | Wind** | Luminosity | Snow |
|---|---|---|---|---|---|---|---|
| 1777652085 | 20.56° C | 94% | 1007.4 hPa | 11.18 mm | - | - | - |
| 1777651186 | 20° C | 94% | 1007.4 hPa | 11.18 mm | - | - | - |
| 1777650284 | 20.56° C | 93% | 1007.7 hPa | 11.18 mm | - | - | - |
| 1777649385 | 20° C | 94% | 1007.7 hPa | 11.18 mm | - | - | - |
| 1777648484 | 19.44° C | 95% | 1007.7 hPa | 11.18 mm | - | - | - |
| 1777647584 | 19.44° C | 95% | 1008.1 hPa | 11.18 mm | - | - | - |
| 1777646685 | 18.89° C | 95% | 1008.1 hPa | 11.18 mm | - | - | - |
| 1777645784 | 18.33° C | 95% | 1008.4 hPa | 11.18 mm | - | - | - |
| 1777644885 | 17.78° C | 96% | 1008.4 hPa | 11.18 mm | - | - | - |
| 1777643986 | 17.22° C | 96% | 1008.8 hPa | 11.18 mm | - | - | - |
| 1777643084 | 17.22° C | 96% | 1008.4 hPa | 11.18 mm | - | - | - |
| 1777642185 | 16.67° C | 96% | 1008.4 hPa | 11.18 mm | - | - | - |
| 1777641284 | 16.11° C | 97% | 1008.4 hPa | 11.18 mm | - | - | - |
| 1777640384 | 15.56° C | 96% | 1008.4 hPa | 10.16 mm | - | - | - |
| 1777639485 | 16.11° C | 95% | 1008.4 hPa | 3.81 mm | - | - | - |
| 1777638584 | 16.11° C | 95% | 1008.4 hPa | 3.05 mm | - | - | - |
| 1777637684 | 16.11° C | 95% | 1008.4 hPa | 3.05 mm | - | - | - |
| 1777636785 | 15.56° C | 95% | 1008.1 hPa | 3.05 mm | - | - | - |
| 1777634984 | 15.56° C | 95% | 1008.1 hPa | 2.54 mm | - | - | - |
| 1777634085 | 15.56° C | 94% | 1008.1 hPa | 2.54 mm | - | - | - |
| 1777633186 | 15.56° C | 94% | 1007.4 hPa | 2.54 mm | - | - | - |
| 1777632284 | 15.56° C | 94% | 1007.7 hPa | 2.54 mm | - | - | - |
| 1777631385 | 15° C | 94% | 1007.7 hPa | 2.54 mm | - | - | - |
| 1777630484 | 15° C | 94% | 1007.7 hPa | 2.54 mm | - | - | - |
| 1777629585 | 15° C | 94% | 1007.7 hPa | 2.54 mm | - | - | - |
* Rain since midnight (hover to see other rain measurements)
** Current wind speed in m/s (hover to see current wind gust speed)